2024/01/25 00:00:00,22.5,-2.0
2024/01/25 00:10:00,23.2,-1.9
2024/01/25 00:20:00,24.2,-1.9
2024/01/25 00:30:00,24.5,-2.0
2024/01/25 00:40:00,24.9,-1.8
2024/01/25 00:50:00,25.0,-1.9
2024/01/25 01:00:00,24.7,-1.8
2024/01/25 01:10:00,25.1,-1.8
2024/01/25 01:20:00,25.6,-1.8
2024/01/25 01:30:00,25.8,-1.7
2024/01/25 01:40:00,25.7,-1.9
2024/01/25 01:50:00,25.7,-1.7
2024/01/25 02:00:00,26.3,-1.8
2024/01/25 02:10:00,26.9,-1.6
2024/01/25 02:20:00,27.0,-1.7
2024/01/25 02:30:00,27.4,-1.7
2024/01/25 02:40:00,27.8,-1.9
2024/01/25 02:50:00,28.5,-1.5
2024/01/25 03:00:00,29.0,-1.9
2024/01/25 03:10:00,29.5,-1.5
2024/01/25 03:20:00,29.5,-1.8
2024/01/25 03:30:00,29.7,-1.8
2024/01/25 03:40:00,30.4,-1.8
2024/01/25 03:50:00,31.1,-2.0
2024/01/25 04:00:00,30.9,-1.7
2024/01/25 04:10:00,30.4,-1.7
2024/01/25 04:20:00,30.6,-1.8
2024/01/25 04:30:00,31.1,-1.8
2024/01/25 04:40:00,31.5,-1.9
2024/01/25 04:50:00,31.3,-1.7
2024/01/25 05:00:00,31.3,-1.6
2024/01/25 05:10:00,31.0,-1.7
2024/01/25 05:20:00,31.0,-1.6
2024/01/25 05:30:00,30.5,-1.7
2024/01/25 05:40:00,30.8,-1.8
2024/01/25 05:50:00,30.1,-1.8
2024/01/25 06:00:00,30.3,-1.8
2024/01/25 06:10:00,30.5,-1.8
2024/01/25 06:20:00,30.4,-1.8
2024/01/25 06:30:00,30.4,-1.7
2024/01/25 06:40:00,30.5,-1.8
2024/01/25 06:50:00,30.7,-1.6
2024/01/25 07:00:00,30.9,-1.7
2024/01/25 07:10:00,31.1,-1.6
2024/01/25 07:20:00,31.1,-1.7
2024/01/25 07:30:00,31.9,-1.4
2024/01/25 07:40:00,32.6,-1.2
2024/01/25 07:50:00,33.2,-1.3
2024/01/25 08:00:00,33.6,-1.3
2024/01/25 08:10:00,33.7,-1.1
2024/01/25 08:20:00,33.5,-0.6
2024/01/25 08:30:00,33.6,-0.8
2024/01/25 08:40:00,33.8,-0.9
2024/01/25 08:50:00,34.4,-0.7
2024/01/25 09:00:00,35.4,-0.3
2024/01/25 09:10:00,36.2,-0.4
2024/01/25 09:20:00,36.4,-0.3
2024/01/25 09:30:00,36.9,-0.1
2024/01/25 09:40:00,36.9, 0.0
2024/01/25 09:50:00,36.7,-0.5
2024/01/25 10:00:00,37.2,-0.1
2024/01/25 10:10:00,37.7, 0.4
2024/01/25 10:20:00,37.6, 2.0
2024/01/25 10:30:00,37.4, 2.8
2024/01/25 10:40:00,37.4, 1.6
2024/01/25 10:50:00,37.2, 1.4
2024/01/25 11:00:00,37.0, 0.7
2024/01/25 11:10:00,37.0, 1.7
2024/01/25 11:20:00,36.6, 1.5
2024/01/25 11:30:00,36.1, 1.4
2024/01/25 11:40:00,36.2, 0.9
2024/01/25 11:50:00,36.5, 0.5
2024/01/25 12:00:00,37.0, 0.0
2024/01/25 12:10:00,37.3, 1.0
2024/01/25 12:20:00,37.3, 3.1
2024/01/25 12:30:00,34.3, 3.0
2024/01/25 12:40:00,34.2, 2.1
2024/01/25 12:50:00,34.7, 1.1
2024/01/25 13:00:00,35.5, 0.7
2024/01/25 13:10:00,36.0, 1.1
2024/01/25 13:20:00,35.8, 2.1
2024/01/25 13:30:00,35.4, 2.4
2024/01/25 13:40:00,34.7, 2.3
2024/01/25 13:50:00,34.3, 1.1
2024/01/25 14:00:00,34.1, 1.0
2024/01/25 14:10:00,33.9, 1.1
2024/01/25 14:20:00,33.8, 0.9
2024/01/25 14:30:00,34.3, 0.7
2024/01/25 14:40:00,34.3, 0.5
2024/01/25 14:50:00,34.9, 1.1
2024/01/25 15:00:00,34.9, 1.3
2024/01/25 15:10:00,34.6, 0.8
2024/01/25 15:20:00,34.6, 1.1
2024/01/25 15:30:00,34.2, 1.1
2024/01/25 15:40:00,33.8, 0.6
2024/01/25 15:50:00,33.9, 0.4
2024/01/25 16:00:00,33.6, 1.1
2024/01/25 16:10:00,33.4, 0.6
2024/01/25 16:20:00,33.0, 0.9
2024/01/25 16:30:00,32.6, 0.5
2024/01/25 16:40:00,32.1, 0.0
2024/01/25 16:50:00,31.9,-0.2
2024/01/25 17:00:00,33.4,-0.2
2024/01/25 17:10:00,33.6,-0.2
2024/01/25 17:20:00,33.4,-0.2
2024/01/25 17:30:00,33.4, 0.1
2024/01/25 17:40:00,33.4,-0.1
2024/01/25 17:50:00,33.3,-0.4
2024/01/25 18:00:00,33.4,-0.4
2024/01/25 18:10:00,33.5,-0.5
2024/01/25 18:20:00,33.3,-0.7
2024/01/25 18:30:00,32.6,-0.3
2024/01/25 18:40:00,34.0,-0.4
2024/01/25 18:50:00,34.1,-0.3
2024/01/25 19:00:00,34.3,-0.4
2024/01/25 19:10:00,35.0,-0.4
2024/01/25 19:20:00,35.3,-0.7
2024/01/25 19:30:00,35.2,-0.2
2024/01/25 19:40:00,35.0,-0.2
2024/01/25 19:50:00,35.3,-0.2
2024/01/25 20:00:00,36.1,-0.4
2024/01/25 20:10:00,36.0,-0.3
2024/01/25 20:20:00,35.7,-0.3
2024/01/25 20:30:00,36.2,-0.2
2024/01/25 20:40:00,36.5,-0.4
2024/01/25 20:50:00,36.5,-0.4
2024/01/25 21:00:00,36.5,-0.4
2024/01/25 21:10:00,36.1,-0.4
2024/01/25 21:20:00,36.0,-0.3
2024/01/25 21:30:00,35.9,-0.2
2024/01/25 21:40:00,36.0, 0.2
2024/01/25 21:50:00,36.4,-0.2
2024/01/25 22:00:00,36.8,-0.1
2024/01/25 22:10:00,36.8,-0.4
2024/01/25 22:20:00,37.0,-0.5
2024/01/25 22:30:00,37.0,-0.4
2024/01/25 22:40:00,37.3,-0.3
2024/01/25 22:50:00,37.1,-0.3
2024/01/25 23:00:00,37.0,-0.4
2024/01/25 23:10:00,36.9,-0.2
2024/01/25 23:20:00,36.8,-0.4
2024/01/25 23:30:00,36.7,-0.4
2024/01/25 23:40:00,37.0,-0.5
2024/01/25 23:50:00,37.0,-0.2
